"2010-02-18 00:00:00",1690839,2.465,142.1,4.891,0.779,4.291,101.5888,3.353,4.483,29.39,0,109.8,13.52,4.12,104.1
"2010-02-18 00:00:30",1690840,2.89,142.7,6.684,1.15,4.777,101.5909,3.359,4.394,29.3,0,109.8,13.52,4.12,104.7
"2010-02-18 00:01:00",1690841,2.44,139.7,4.258,0.796,4.615,101.5863,3.347,4.456,29.35,0,109.8,13.52,4.11,101.7
"2010-02-18 00:01:30",1690842,3.63,149.5,7.138,1.243,6.976,101.5838,3.341,4.541,29.44,0,109.8,13.52,4.10,111.5
"2010-02-18 00:02:00",1690843,3.702,147.2,5.97,1.158,7.249,101.5824,3.337,4.57,29.51,0,109.8,13.52,4.10,109.2
"2010-02-18 00:02:30",1690844,3.973,148,6.183,1.027,7.427,101.5813,3.334,4.582,29.52,0,109.8,13.52,4.10,110.0
"2010-02-18 00:03:00",1690845,2.774,143.4,5.243,1.027,4.461,101.5804,3.332,4.346,29.32,0,109.8,13.52,4.10,105.4
"2010-02-18 00:03:30",1690846,3.163,143.9,6.863,1.179,5.647,101.5742,3.316,4.496,29.51,0,109.8,13.51,4.08,105.9
"2010-02-18 00:04:00",1690847,1.912,140.5,2.389,0.084,3.725,101.5705,3.307,4.413,29.45,0,109.8,13.55,4.07,102.5
"2010-02-18 00:04:30",1690848,1.963,139.8,2.152,0.496,3.973,101.5674,3.299,4.429,29.5,0,109.8,13.51,4.06,101.8
"2010-02-18 00:05:00",1690849,3.024,148.9,8,1.308,6.432,101.5632,3.288,4.442,29.58,0,109.8,13.51,4.05,110.9
"2010-02-18 00:05:30",1690850,3.393,149.9,6.325,1.06,7.457,101.5609,3.282,4.583,29.71,0,109.8,13.51,4.05,111.9
"2010-02-18 00:06:00",1690851,3.146,146.5,5.763,1.192,6.683,101.5609,3.282,4.511,29.66,0,109.7,13.51,4.05,108.5
"2010-02-18 00:06:30",1690852,2.786,142.8,6.254,1.264,5.305,101.5609,3.282,4.381,29.5,0,109.8,13.51,4.05,104.8
"2010-02-18 00:07:00",1690853,2.658,144.2,7.511,1.248,5.344,101.5609,3.282,4.465,29.57,0,109.7,13.51,4.05,106.2
"2010-02-18 00:07:30",1690854,1.723,142.3,1.241,0.235,3.71,101.5609,3.282,4.333,29.47,0,109.7,13.51,4.05,104.3
"2010-02-18 00:08:00",1690855,2.507,147.8,6.08,1.234,5.129,101.5609,3.282,4.329,29.52,0,109.7,13.51,4.05,109.8
"2010-02-18 00:08:30",1690856,3.225,152.3,6.355,1.234,7.048,101.5609,3.282,4.529,29.71,0,109.8,13.52,4.05,114.3
"2010-02-18 00:09:00",1690857,3.372,151.9,6.092,1.11,7.119,101.5609,3.282,4.5,29.7,0,109.8,13.52,4.05,113.9
"2010-02-18 00:09:30",1690858,2.776,144.8,6.106,1.237,6.309,101.5609,3.282,4.496,29.72,0,109.8,13.52,4.05,106.8
"2010-02-18 00:10:00",1690859,2.286,147.7,6.852,1.209,5.245,101.5609,3.282,4.467,29.69,0,109.8,13.52,4.05,109.7
"2010-02-18 00:10:30",1690860,2.114,148.6,7.166,1.189,4.818,101.5609,3.282,4.449,29.71,0,109.8,13.52,4.05,110.6
"2010-02-18 00:11:00",1690861,1.833,147.2,5.745,0.866,3.798,101.5595,3.279,4.307,29.58,0,109.8,13.52,4.04,109.2
"2010-02-18 00:11:30",1690862,2.51,150.5,6.549,1.306,5.833,101.5547,3.266,4.426,29.7,0,109.8,13.52,4.03,112.5
"2010-02-18 00:12:00",1690863,1.411,144.6,3.165,0.238,4.192,101.5468,3.246,4.398,29.67,0,109.8,13.52,4.01,106.6
"2010-02-18 00:12:30",1690864,3.011,154.2,6.44,1.201,7.113,101.5355,3.217,4.54,29.81,0,109.8,13.52,3.98,116.2
"2010-02-18 00:13:00",1690865,3.127,154.5,5.553,1.115,7.566,101.5281,3.198,4.533,29.8,0,109.8,13.53,3.96,116.5
"2010-02-18 00:13:30",1690866,3.119,152,7.04,1.235,6.642,101.527,3.196,4.453,29.77,0,109.8,13.52,3.96,114.0
"2010-02-18 00:14:00",1690867,1.907,143.2,6.234,0.933,4.117,101.527,3.196,4.404,29.72,0,109.8,13.52,3.96,105.2
"2010-02-18 00:14:30",1690868,1.646,144.3,4.326,0.875,3.738,101.527,3.196,4.301,29.62,0,109.8,13.52,3.96,106.3
"2010-02-18 00:15:00",1690869,1.564,145.8,3.092,0.659,3.537,101.527,3.196,4.279,29.68,0,109.8,13.53,3.96,107.8
"2010-02-18 00:15:30",1690870,2.112,150.4,7.755,1.177,5.594,101.527,3.196,4.443,29.89,0,109.8,13.53,3.96,112.4
"2010-02-18 00:16:00",1690871,3.016,153.9,6.703,1.212,6.226,101.527,3.196,4.384,29.84,0,109.8,13.53,3.96,115.9
"2010-02-18 00:16:30",1690872,2.705,153.9,6.402,1.227,6.923,101.527,3.196,4.503,29.98,0,109.7,13.53,3.96,115.9
"2010-02-18 00:17:00",1690873,2.443,149.1,6.606,1.187,5.661,101.527,3.196,4.414,29.92,0,109.7,13.53,3.96,111.1
"2010-02-18 00:17:30",1690874,2.518,151,6.671,1.255,5.349,101.5273,3.196,4.411,29.9,0,109.8,13.53,3.96,113.0
"2010-02-18 00:18:00",1690875,1.536,145.8,0.884,0.028,3.289,101.5267,3.195,4.243,29.73,0,109.8,13.56,3.96,107.8
"2010-02-18 00:18:30",1690876,1.537,147.4,0.845,0.039,3.499,101.5222,3.183,4.246,29.73,0,109.8,13.53,3.95,109.4
"2010-02-18 00:19:00",1690877,1.936,148.4,5.35,0.809,4.717,101.5171,3.17,4.379,29.88,0,109.8,13.54,3.93,110.4
"2010-02-18 00:19:30",1690878,3.61,157.8,5.907,1.144,7.57,101.5103,3.153,4.429,30.02,0,109.8,13.53,3.92,119.8
"2010-02-18 00:20:00",1690879,3.642,160.8,5.66,1.046,7.852,101.5018,3.131,4.431,30.09,0,109.8,13.53,3.89,122.8
"2010-02-18 00:20:30",1690880,3.327,161.6,6.51,1.115,7.282,101.495,3.114,4.463,30.24,0,109.8,13.53,3.88,123.6
"2010-02-18 00:21:00",1690881,2.468,154.3,6.616,1.213,5.535,101.493,3.109,4.347,30.09,0,109.8,13.52,3.87,116.3
"2010-02-18 00:21:30",1690882,1.398,147.7,2.27,0.243,3.2,101.493,3.109,4.21,29.92,0,109.8,13.53,3.87,109.7
"2010-02-18 00:22:00",1690883,1.274,145.4,2.006,0.051,3.204,101.4936,3.11,4.215,29.92,0,109.8,13.56,3.87,107.4
"2010-02-18 00:22:30",1690884,1.75,150.9,5.461,0.916,4.065,101.4939,3.111,4.2,29.92,0,109.8,13.53,3.87,112.9
"2010-02-18 00:23:00",1690885,2.005,158.1,5.612,1.164,5.931,101.4933,3.11,4.436,30.19,0,109.8,13.53,3.87,120.1
"2010-02-18 00:23:30",1690886,2.999,158.5,6.348,1.133,7.519,101.4933,3.11,4.384,30.16,0,109.8,13.53,3.87,120.5
"2010-02-18 00:24:00",1690887,2.924,157.2,6.696,1.223,7.062,101.4933,3.11,4.454,30.24,0,109.8,13.53,3.87,119.2
"2010-02-18 00:24:30",1690888,1.972,152.1,7.179,1.183,5.175,101.495,3.114,4.36,30.22,0,109.8,13.53,3.88,114.1
"2010-02-18 00:25:00",1690889,1.166,145.4,1.308,0.046,3.278,101.4917,3.105,4.237,30.1,0,109.8,13.56,3.87,107.4
"2010-02-18 00:25:30",1690890,1.105,145.2,2.687,0.067,3.004,101.4894,3.1,4.161,30.08,0,109.8,13.56,3.86,107.2
"2010-02-18 00:26:00",1690891,0.99,144.8,2.455,0.052,3.438,101.4846,3.087,4.168,30.13,0,109.8,13.57,3.85,106.8
"2010-02-18 00:26:30",1690892,2.016,149.6,4.908,1.288,5.543,101.4781,3.071,4.182,30.2,0,109.7,13.54,3.83,111.6
"2010-02-18 00:27:00",1690893,2.461,153.4,7.561,1.206,6.994,101.4671,3.043,4.381,30.5,0,109.8,13.54,3.81,115.4
"2010-02-18 00:27:30",1690894,1.866,145.1,5.957,1.216,5.882,101.466,3.04,4.309,30.56,0,109.7,13.54,3.80,107.1
"2010-02-18 00:28:00",1690895,2.21,151.9,6.145,1.145,6.546,101.4674,3.044,4.36,30.77,0,109.7,13.54,3.81,113.9
"2010-02-18 00:28:30",1690896,1.382,148.7,7.951,1.18,4.603,101.4706,3.052,4.24,30.73,0,109.7,13.54,3.81,110.7
"2010-02-18 00:29:00",1690897,0.479,144.1,2.311,0.035,2.565,101.4729,3.058,4.132,30.68,0,109.7,13.57,3.82,106.1
"2010-02-18 00:29:30",1690898,0.523,151.5,5.944,0.075,2.564,101.4735,3.059,4.138,30.73,0,109.7,13.57,3.82,113.5
"2010-02-18 00:30:00",1690899,0.513,146.5,4.325,0.059,2.763,101.4752,3.063,4.119,30.76,0,109.7,13.58,3.83,108.5
"2010-02-18 00:30:30",1690900,0.54,148,2.757,0.041,3.176,101.4783,3.071,4.117,30.75,0,109.7,13.58,3.83,110.0
"2010-02-18 00:31:00",1690901,1.193,157.2,7.039,1.163,4.915,101.4792,3.074,4.194,30.79,0,109.7,13.55,3.84,119.2
"2010-02-18 00:31:30",1690902,2.063,154.2,6.235,1.239,6.801,101.4806,3.077,4.348,31,0,109.7,13.55,3.84,116.2
"2010-02-18 00:32:00",1690903,2.05,151.5,7.429,1.28,6.756,101.4764,3.067,4.325,31.01,0,109.7,13.55,3.83,113.5
"2010-02-18 00:32:30",1690904,2.394,167.4,9.02,1.105,7.229,101.4637,3.034,4.351,31.09,0,109.7,13.54,3.80,129.4
"2010-02-18 00:33:00",1690905,1.589,170.2,4.521,1.197,5.192,101.4536,3.008,4.117,30.92,0,109.7,13.54,3.77,132.2
"2010-02-18 00:33:30",1690906,0.596,155.4,4.429,0.079,2.427,101.4524,3.005,4.083,30.95,0,109.7,13.58,3.77,117.4
"2010-02-18 00:34:00",1690907,0.583,158.5,5.076,0.079,2.46,101.4539,3.009,4.074,30.96,0,109.7,13.58,3.77,120.5
"2010-02-18 00:34:30",1690908,0.534,167.8,7.589,0.056,3.277,101.4553,3.013,4.064,31.01,0,109.7,13.58,3.78,129.8
"2010-02-18 00:35:00",1690909,0.393,170.2,6.436,0.066,3.742,101.455,3.012,4.072,31.02,0,109.7,13.58,3.77,132.2
"2010-02-18 00:35:30",1690910,1.492,167.8,7.713,1.239,5.799,101.4547,3.011,4.178,31.16,0,109.7,13.55,3.77,129.8
"2010-02-18 00:36:00",1690911,1.807,172.7,7.443,1.318,6.637,101.4502,3,4.196,31.23,0,109.7,13.54,3.76,134.7
"2010-02-18 00:36:30",1690912,2.608,182.6,12.13,1.081,7.753,101.4302,2.948,4.298,31.37,0,109.7,13.54,3.71,144.6
"2010-02-18 00:37:00",1690913,2.337,178.1,10.24,1.083,7.156,101.4239,2.933,4.271,31.36,0,109.7,13.54,3.69,140.1
"2010-02-18 00:37:30",1690914,1.519,162.5,5.754,1.205,4.268,101.4254,2.936,4.03,31.13,0,109.7,13.54,3.70,124.5
"2010-02-18 00:38:00",1690915,0.757,165.3,4.382,0.089,2.988,101.4257,2.937,4.006,31.16,0,109.7,13.58,3.70,127.3
"2010-02-18 00:38:30",1690916,0.846,171.9,8.34,0.088,3.003,101.4257,2.937,3.992,31.21,0,109.7,13.58,3.70,133.9
"2010-02-18 00:39:00",1690917,1.214,173,7.728,0.145,3.447,101.4257,2.937,3.985,31.2,0,109.7,13.58,3.70,135.0
"2010-02-18 00:39:30",1690918,2.209,173.9,5.789,1.223,5.904,101.4225,2.929,4.109,31.29,0,109.7,13.55,3.69,135.9
"2010-02-18 00:40:00",1690919,1.773,177,6.776,1.215,6.007,101.4107,2.899,4.107,31.27,0,109.7,13.54,3.66,139.0
"2010-02-18 00:40:30",1690920,2.352,179.3,6.054,1.305,6.736,101.4061,2.887,4.21,31.37,0,109.7,13.55,3.65,141.3
"2010-02-18 00:41:00",1690921,3.216,176.9,5.453,1.138,7.256,101.3945,2.858,4.165,31.33,0,109.7,13.55,3.62,138.9
"2010-02-18 00:41:30",1690922,1.57,169.6,2.907,0.757,3.874,101.3917,2.85,4.051,31.25,0,109.7,13.55,3.61,131.6
"2010-02-18 00:42:00",1690923,1.533,170.5,5.924,0.788,4.363,101.3917,2.85,4.008,31.22,0,109.7,13.55,3.61,132.5
"2010-02-18 00:42:30",1690924,1.335,167.9,1.76,0.055,3.457,101.3917,2.85,3.931,31.16,0,109.7,13.58,3.61,129.9
"2010-02-18 00:43:00",1690925,2.088,169.2,4.931,1.132,4.547,101.3917,2.85,3.912,31.21,0,109.8,13.55,3.61,131.2
"2010-02-18 00:43:30",1690926,2.833,172.5,6.243,1.298,6.817,101.3917,2.85,4.128,31.57,0,109.7,13.55,3.61,134.5
"2010-02-18 00:44:00",1690927,2.104,174.5,8.01,1.135,6.395,101.388,2.841,4.175,31.6,0,109.7,13.55,3.60,136.5
"2010-02-18 00:44:30",1690928,2.225,178,5.363,1.331,5.82,101.3804,2.821,3.954,31.41,0,109.7,13.55,3.58,140.0
"2010-02-18 00:45:00",1690929,2.83,179.9,6.604,1.189,6.872,101.3713,2.798,4.053,31.5,0,109.7,13.55,3.56,141.9
"2010-02-18 00:45:30",1690930,0.977,168.1,3.416,0.115,4.154,101.3651,2.783,3.987,31.45,0,109.7,13.59,3.54,130.1
"2010-02-18 00:46:00",1690931,1.011,164.8,5.503,0.1,3.328,101.3578,2.764,3.888,31.33,0,109.7,13.59,3.53,126.8
"2010-02-18 00:46:30",1690932,0.92,173.6,2.187,0.069,3.58,101.3578,2.764,3.875,31.33,0,109.7,13.59,3.53,135.6
"2010-02-18 00:47:00",1690933,1.943,177.3,7.371,1.242,5.619,101.3578,2.764,3.985,31.46,0,109.7,13.55,3.53,139.3
"2010-02-18 00:47:30",1690934,2.684,185.1,7.587,1.13,7.479,101.3578,2.764,4.058,31.53,0,109.7,13.55,3.53,147.1
"2010-02-18 00:48:00",1690935,1.027,176.4,4.465,0.236,4.176,101.3578,2.764,3.958,31.48,0,109.7,13.55,3.53,138.4
"2010-02-18 00:48:30",1690936,0.84,173.4,4.52,0.082,3.672,101.3578,2.764,3.944,31.47,0,109.7,13.59,3.53,135.4
"2010-02-18 00:49:00",1690937,2.794,176.9,7.116,1.25,7.075,101.3578,2.764,4.107,31.65,0,109.7,13.56,3.53,138.9
"2010-02-18 00:49:30",1690938,3.006,179.2,8.47,1.216,7.217,101.3578,2.764,3.993,31.61,0,109.7,13.56,3.53,141.2
"2010-02-18 00:50:00",1690939,1.093,170.8,3.535,0.078,4.02,101.3578,2.764,3.846,31.47,0,109.7,13.59,3.53,132.8
"2010-02-18 00:50:30",1690940,2.177,177.1,6.491,1.242,5.813,101.3578,2.764,3.984,31.64,0,109.7,13.56,3.53,139.1
"2010-02-18 00:51:00",1690941,2.13,183.2,10.97,1.215,5.894,101.3578,2.764,4,31.69,0,109.7,13.56,3.53,145.2
"2010-02-18 00:51:30",1690942,2.192,186.7,7.931,1.267,5.66,101.3578,2.764,3.957,31.65,0,109.7,13.56,3.53,148.7
"2010-02-18 00:52:00",1690943,1.201,179.4,1.691,0.051,3.468,101.3578,2.764,3.828,31.54,0,109.7,13.59,3.53,141.4
"2010-02-18 00:52:30",1690944,1.167,177.2,1.622,0.05,3.541,101.3578,2.764,3.835,31.56,0,109.7,13.59,3.53,139.2
"2010-02-18 00:53:00",1690945,2.358,185.2,7.976,1.296,6.453,101.3578,2.764,4.029,31.79,0,109.7,13.56,3.53,147.2
"2010-02-18 00:53:30",1690946,2.08,184.4,7.35,1.21,6.375,101.3578,2.764,3.997,31.78,0,109.7,13.56,3.53,146.4
"2010-02-18 00:54:00",1690947,1.557,182.2,3.39,0.639,4.269,101.3578,2.764,3.894,31.76,0,109.7,13.55,3.53,144.2
"2010-02-18 00:54:30",1690948,3.008,192.5,5.452,1.237,6.895,101.3578,2.764,4.004,31.9,0,109.7,13.55,3.53,154.5
"2010-02-18 00:55:00",1690949,2.867,185.9,6.405,1.203,6.342,101.3578,2.764,4.023,31.98,0,109.7,13.55,3.53,147.9
"2010-02-18 00:55:30",1690950,1.304,178.9,1.319,0.052,3.327,101.3578,2.764,3.824,31.79,0,109.7,13.56,3.53,140.9
"2010-02-18 00:56:00",1690951,1.322,177.1,1.793,0.062,3.281,101.3578,2.764,3.828,31.84,0,109.7,13.58,3.53,139.1
"2010-02-18 00:56:30",1690952,1.269,171.9,2.217,0.057,3.565,101.3578,2.764,3.852,31.91,0,109.7,13.59,3.53,133.9
"2010-02-18 00:57:00",1690953,2.632,181.5,7.277,1.296,6.888,101.3578,2.764,4.077,32.15,0,109.7,13.56,3.53,143.5
"2010-02-18 00:57:30",1690954,3.238,182,6.296,1.033,8.01,101.3572,2.762,3.989,32.1,0,109.7,13.56,3.52,144.0
"2010-02-18 00:58:00",1690955,2.143,182.1,6.421,1.244,6.518,101.3575,2.763,3.949,32.11,0,109.7,13.56,3.52,144.1
"2010-02-18 00:58:30",1690956,2.953,187.6,7.381,1.14,7.327,101.3575,2.763,4.023,32.21,0,109.7,13.56,3.52,149.6
"2010-02-18 00:59:00",1690957,1.52,180.9,5.612,0.794,3.622,101.3575,2.763,3.838,32.08,0,109.7,13.56,3.52,142.9
"2010-02-18 00:59:30",1690958,1.335,180.8,2.452,0.074,2.951,101.3561,2.759,3.826,32.07,0,109.7,13.59,3.52,142.8
"2010-02-18 01:00:00",1690959,1.233,180.4,2.142,0.068,3.216,101.3566,2.761,3.821,32.1,0,109.7,13.59,3.52,142.4
"2010-02-18 01:00:30",1690960,1.261,181.1,4.392,0.134,3.629,101.3561,2.759,3.82,32.11,0,109.7,13.59,3.52,143.1
"2010-02-18 01:01:00",1690961,2.553,185.8,7.92,1.303,7.008,101.3544,2.755,4.037,32.36,0,109.7,13.57,3.52,147.8
"2010-02-18 01:01:30",1690962,3.577,192.1,6.127,0.738,9.45,101.3504,2.745,4.114,32.46,0,109.7,13.57,3.51,154.1
"2010-02-18 01:02:00",1690963,3.294,182,6.086,1.095,7.839,101.3513,2.747,4.011,32.3,0,109.7,13.56,3.51,144.0
"2010-02-18 01:02:30",1690964,2.23,174.5,5.845,1.218,5.693,101.3496,2.743,3.968,32.22,0,109.7,13.56,3.50,136.5
"2010-02-18 01:03:00",1690965,1.668,172.6,2.925,0.645,3.344,101.3516,2.748,3.823,32.04,0,109.7,13.56,3.51,134.6
"2010-02-18 01:03:30",1690966,1.346,169.8,2.059,0.079,3.095,101.3501,2.744,3.811,32.03,0,109.7,13.59,3.51,131.8
"2010-02-18 01:04:00",1690967,1.257,173.4,2.536,0.07,3.468,101.3518,2.749,3.811,32.05,0,109.7,13.59,3.51,135.4
"2010-02-18 01:04:30",1690968,1.535,174.9,3.902,0.675,4.558,101.3499,2.744,3.85,32.12,0,109.7,13.57,3.51,136.9
"2010-02-18 01:05:00",1690969,3.42,186.5,4.514,1.051,8.42,101.353,2.752,4.09,32.36,0,109.7,13.57,3.51,148.5
"2010-02-18 01:05:30",1690970,3.549,185.2,4.142,0.907,9.18,101.3536,2.753,4.119,32.36,0,109.7,13.57,3.51,147.2
"2010-02-18 01:06:00",1690971,2.531,178.8,4.714,1.244,6.695,101.3522,2.749,3.981,32.2,0,109.7,13.57,3.51,140.8
"2010-02-18 01:06:30",1690972,1.824,178.6,4.594,1.009,4.898,101.353,2.752,3.95,32.21,0,109.7,13.56,3.51,140.6
"2010-02-18 01:07:00",1690973,1.32,178.2,2.524,0.095,3.269,101.3564,2.76,3.818,32.17,0,109.7,13.59,3.52,140.2
"2010-02-18 01:07:30",1690974,1.369,178.2,2.278,0.089,3.422,101.3581,2.765,3.805,32.21,0,109.7,13.59,3.53,140.2
"2010-02-18 01:08:00",1690975,1.401,180.2,3.12,0.116,3.802,101.3601,2.77,3.806,32.22,0,109.7,13.6,3.53,142.2
"2010-02-18 01:08:30",1690976,2.36,190.4,6.766,1.256,6.649,101.363,2.777,4.004,32.44,0,109.7,13.56,3.54,152.4
"2010-02-18 01:09:00",1690977,3.052,198,6.328,1.038,8.26,101.3598,2.769,4.097,32.6,0,109.7,13.56,3.53,160.0
"2010-02-18 01:09:30",1690978,3.143,195.5,6.758,1.099,8.33,101.3644,2.781,4.056,32.59,0,109.7,13.56,3.54,157.5
"2010-02-18 01:10:00",1690979,1.739,193.6,6.93,1.144,5.127,101.3647,2.781,3.894,32.43,0,109.7,13.56,3.54,155.6
"2010-02-18 01:10:30",1690980,1.276,183.8,2.602,0.099,3.434,101.365,2.782,3.81,32.36,0,109.7,13.59,3.54,145.8
"2010-02-18 01:11:00",1690981,1.225,188.8,3.221,0.043,3.107,101.3641,2.78,3.83,32.36,0,109.7,13.59,3.54,150.8
"2010-02-18 01:11:30",1690982,1.282,184.8,1.603,0.141,3.631,101.3636,2.779,3.813,32.37,0,109.7,13.59,3.54,146.8
"2010-02-18 01:12:00",1690983,2.345,187.1,5.115,1.271,6.026,101.367,2.787,3.941,32.49,0,109.7,13.56,3.55,149.1
"2010-02-18 01:12:30",1690984,2.587,193.9,4.788,1.298,6.984,101.3678,2.789,4.011,32.58,0,109.7,13.56,3.55,155.9
"2010-02-18 01:13:00",1690985,3.91,194.3,4.361,0.642,8.59,101.3667,2.787,4.106,32.68,0,109.7,13.56,3.55,156.3
"2010-02-18 01:13:30",1690986,3.104,192.7,5.595,1.17,7.623,101.365,2.782,4.025,32.58,0,109.7,13.56,3.54,154.7
"2010-02-18 01:14:00",1690987,1.618,189.6,3.935,0.8,4.046,101.3658,2.784,3.871,32.43,0,109.7,13.56,3.55,151.6
"2010-02-18 01:14:30",1690988,1.299,190.3,1.495,0.066,3.194,101.3661,2.785,3.812,32.38,0,109.7,13.59,3.55,152.3
"2010-02-18 01:15:00",1690989,1.271,188.5,1.798,0.109,3.591,101.3624,2.776,3.849,32.41,0,109.7,13.6,3.54,150.5
"2010-02-18 01:15:30",1690990,2.359,194.2,7.398,1.161,5.552,101.3639,2.779,3.894,32.43,0,109.7,13.57,3.54,156.2
"2010-02-18 01:16:00",1690991,2.708,191.5,7.361,1.207,6.159,101.3622,2.775,3.948,32.5,0,109.7,13.57,3.54,153.5
"2010-02-18 01:16:30",1690992,3.028,191.9,6.64,1.237,7.163,101.3554,2.758,4.101,32.63,0,109.7,13.57,3.52,153.9
"2010-02-18 01:17:00",1690993,3.665,192.8,4.688,0.804,8.25,101.3579,2.764,4.109,32.65,0,109.7,13.57,3.53,154.8
"2010-02-18 01:17:30",1690994,2.829,188.6,7.39,1.234,6.964,101.3511,2.747,4.06,32.59,0,109.7,13.57,3.51,150.6
"2010-02-18 01:18:00",1690995,1.784,185.7,5.057,0.964,4.645,101.352,2.749,3.815,32.34,0,109.7,13.57,3.51,147.7
"2010-02-18 01:18:30",1690996,1.372,182.9,1.408,0.045,3.58,101.3483,2.74,3.839,32.38,0,109.7,13.6,3.50,144.9
"2010-02-18 01:19:00",1690997,2.401,190.3,8.36,1.229,5.715,101.3472,2.737,3.958,32.46,0,109.7,13.57,3.50,152.3
"2010-02-18 01:19:30",1690998,2.455,186.3,6.587,1.195,5.892,101.3487,2.741,3.953,32.52,0,109.7,13.57,3.50,148.3
"2010-02-18 01:20:00",1690999,2.998,184.5,6.724,1.243,6.138,101.3441,2.729,3.946,32.53,0,109.7,13.57,3.49,146.5
"2010-02-18 01:20:30",1691000,3.413,186.6,6.049,1.169,7.347,101.3493,2.742,4.045,32.65,0,109.7,13.57,3.50,148.6
"2010-02-18 01:21:00",1691001,3.527,182.7,6.58,1.174,7.241,101.3459,2.733,4.029,32.67,0,109.7,13.57,3.50,144.7
"2010-02-18 01:21:30",1691002,2.019,172,6.285,1.049,4.443,101.345,2.731,3.833,32.46,0,109.7,13.57,3.49,134.0
"2010-02-18 01:22:00",1691003,1.342,167.2,3.296,0.05,3.68,101.3436,2.728,3.827,32.43,0,109.7,13.6,3.49,129.2
"2010-02-18 01:22:30",1691004,2.472,184.7,7.222,1.257,5.638,101.3453,2.732,3.941,32.52,0,109.7,13.57,3.49,146.7
"2010-02-18 01:23:00",1691005,2.04,190.5,6.498,1.115,5.399,101.3467,2.736,3.967,32.57,0,109.7,13.57,3.50,152.5
"2010-02-18 01:23:30",1691006,2.296,191.7,6.248,1.224,5.905,101.349,2.741,3.877,32.49,0,109.7,13.57,3.50,153.7
"2010-02-18 01:24:00",1691007,3.535,191.7,4.992,1.144,7.632,101.3479,2.739,4.035,32.66,0,109.7,13.57,3.50,153.7
"2010-02-18 01:24:30",1691008,3.261,183.6,6.298,1.228,6.602,101.347,2.736,3.982,32.67,0,109.7,13.57,3.50,145.6
"2010-02-18 01:25:00",1691009,2.224,172.2,3.855,0.807,4.875,101.3488,2.741,3.98,32.69,0,109.7,13.57,3.50,134.2
"2010-02-18 01:25:30",1691010,3.263,168.1,7.989,1.178,5.353,101.3482,2.739,3.813,32.53,0,109.7,13.57,3.50,130.1
"2010-02-18 01:26:00",1691011,2.604,161.6,6.492,1.125,5.434,101.3482,2.739,3.941,32.69,0,109.7,13.57,3.50,123.6
"2010-02-18 01:26:30",1691012,1.761,157.7,3.393,0.808,3.666,101.3522,2.75,3.821,32.57,0,109.7,13.56,3.51,119.7
"2010-02-18 01:27:00",1691013,1.093,158.9,5.275,0.874,3.609,101.3675,2.788,3.9,32.72,0,109.7,13.56,3.55,120.9
"2010-02-18 01:27:30",1691014,1.939,198.2,17.17,1.181,7.088,101.3827,2.827,4.046,33.09,0,109.7,13.56,3.59,160.2
"2010-02-18 01:28:00",1691015,1.777,269.2,19.37,1.249,5.734,101.3836,2.83,3.968,32.79,0,109.7,13.56,3.59,231.2
"2010-02-18 01:28:30",1691016,1.771,262.7,13.48,1.189,5.519,101.385,2.833,3.973,32.26,0,109.7,13.56,3.60,224.7
"2010-02-18 01:29:00",1691017,2.172,268.5,41.02,1.134,6.297,101.3728,2.802,4.008,31.59,0,109.7,13.56,3.56,230.5
"2010-02-18 01:29:30",1691018,3.765,133.3,42.58,1.76,4.122,101.3508,2.746,3.884,34.39,0,109.7,13.57,3.51,95.3
"2010-02-18 01:30:00",1691019,6.514,120.7,15.69,0.762,4.839,101.3493,2.742,3.902,40.29,0,109.7,13.57,3.50,82.7
"2010-02-18 01:30:30",1691020,6.89,128.3,11.58,1.511,6.546,101.3451,2.731,3.966,41.94,0,109.7,13.57,3.49,90.3
"2010-02-18 01:31:00",1691021,8.39,124.3,6.995,1.108,7.45,101.318,2.662,3.976,43.86,0,109.7,13.57,3.42,86.3
"2010-02-18 01:31:30",1691022,8.18,119.9,3.892,0.892,8.14,101.3183,2.663,4.016,39.2,0,109.7,13.57,3.42,81.9
"2010-02-18 01:32:00",1691023,7.63,131.6,11.78,0.817,8.21,101.3163,2.658,3.994,37.81,0,109.7,13.57,3.42,93.6
"2010-02-18 01:32:30",1691024,7.359,135.4,6.653,0.752,7.742,101.3135,2.651,3.951,37.41,0,109.7,13.57,3.41,97.4
"2010-02-18 01:33:00",1691025,5.725,128.7,7.743,1.253,4.841,101.2891,2.588,3.784,37.93,0,109.7,13.56,3.35,90.7
"2010-02-18 01:33:30",1691026,4.907,136,8.63,1.003,5.379,101.2829,2.573,3.725,38.59,0,109.7,13.56,3.33,98.0
"2010-02-18 01:34:00",1691027,4.04,127.3,10.33,1.364,5.857,101.2834,2.574,3.799,39.34,0,109.7,13.56,3.33,89.3
"2010-02-18 01:34:30",1691028,6.82,110,7.445,1.429,7.254,101.2837,2.575,3.818,39.99,0,109.7,13.57,3.34,72.0
"2010-02-18 01:35:00",1691029,7.057,110.5,5.397,0.963,7.742,101.2659,2.529,3.907,41.06,0,109.7,13.57,3.29,72.5
"2010-02-18 01:35:30",1691030,6.18,122.9,13.44,1.102,6.975,101.2523,2.495,3.806,40.15,0,109.7,13.57,3.26,84.9
"2010-02-18 01:36:00",1691031,5.809,127.3,4.608,1.11,4.321,101.2518,2.493,3.665,41.86,0,109.7,13.57,3.25,89.3
"2010-02-18 01:36:30",1691032,6.287,132.8,4.859,1.114,6.421,101.2526,2.495,3.735,42.64,0,109.7,13.56,3.26,94.8
"2010-02-18 01:37:00",1691033,6.038,128.6,7.053,1.187,6.697,101.2515,2.493,3.716,41.97,0,109.7,13.56,3.25,90.6
"2010-02-18 01:37:30",1691034,6.459,124.5,4.992,0.903,7.827,101.2461,2.479,3.797,42.26,0,109.7,13.57,3.24,86.5
"2010-02-18 01:38:00",1691035,6.513,111.3,7.113,1.038,6.574,101.2254,2.426,3.715,41.4,0,109.7,13.57,3.19,73.3
"2010-02-18 01:38:30",1691036,5.807,107.8,5.785,1.263,5.663,101.2193,2.41,3.735,41.01,0,109.7,13.57,3.17,69.8
"2010-02-18 01:39:00",1691037,6.164,103.1,5.146,1.255,6.144,101.2173,2.405,3.612,40.48,0,109.7,13.57,3.17,65.1
"2010-02-18 01:39:30",1691038,5.862,96.7,7.462,1.26,6.09,101.219,2.41,3.706,39.98,0,109.7,13.57,3.17,58.7
"2010-02-18 01:40:00",1691039,6.798,92.8,5.693,1.21,6.518,101.2198,2.412,3.668,40.64,0,109.7,13.57,3.17,54.8
"2010-02-18 01:40:30",1691040,6.956,97.5,7.208,1.097,6.731,101.2173,2.405,3.693,42.37,0,109.7,13.57,3.17,59.5
"2010-02-18 01:41:00",1691041,7.76,101.9,4.443,0.755,7.496,101.2113,2.39,3.757,45.21,0,109.7,13.57,3.15,63.9
"2010-02-18 01:41:30",1691042,6.762,101.4,5.632,1.217,6.237,101.1935,2.345,3.596,46.99,0,109.7,13.56,3.10,63.4
"2010-02-18 01:42:00",1691043,6.209,96.4,8.93,1.147,5.382,101.1864,2.327,3.551,48.81,0,109.7,13.56,3.09,58.4
"2010-02-18 01:42:30",1691044,6.216,102.6,7.145,1.213,5.938,101.1856,2.324,3.661,50.03,0,109.7,13.56,3.08,64.6
"2010-02-18 01:43:00",1691045,6.205,106.1,6.105,1.108,6.936,101.1856,2.324,3.654,50.31,0,109.7,13.56,3.08,68.1
"2010-02-18 01:43:30",1691046,6.127,111.4,5.64,1.094,7.184,101.1882,2.331,3.635,50.69,0,109.7,13.56,3.09,73.4
"2010-02-18 01:44:00",1691047,5.814,111.4,6.754,1.215,6.351,101.1864,2.327,3.566,50.66,0,109.7,13.56,3.09,73.4
"2010-02-18 01:44:30",1691048,5.281,101,6.808,1.362,5.468,101.1864,2.327,3.486,50.87,0,109.7,13.56,3.09,63.0
"2010-02-18 01:45:00",1691049,5.241,98.3,5.648,1.392,5.168,101.1833,2.319,3.569,50.01,0,109.7,13.56,3.08,60.3
"2010-02-18 01:45:30",1691050,5.543,96.2,6.213,1.26,5.722,101.1771,2.303,3.549,50.76,0,109.7,13.56,3.06,58.2
"2010-02-18 01:46:00",1691051,6.354,98.1,5.636,1.15,6.961,101.1689,2.282,3.606,51.71,0,109.7,13.56,3.04,60.1
"2010-02-18 01:46:30",1691052,6.234,95.8,6.116,1.198,6.366,101.1684,2.28,3.535,52.02,0,109.7,13.56,3.04,57.8
"2010-02-18 01:47:00",1691053,5.657,94.8,6.532,1.249,5.474,101.1669,2.277,3.569,52.24,0,109.7,13.57,3.04,56.8
"2010-02-18 01:47:30",1691054,5.464,93.6,5.749,1.228,5.264,101.1596,2.258,3.501,52.31,0,109.7,13.57,3.02,55.6